Flag for Norway Weather past 2 weeks in Sandefjord, Norway

Now
55 °F

Mostly cloudy.


Feels Like: 55 °F
Forecast: 55 / 60 °F
Wind: 5 mph from Northeast

Location: Torp

Current Time: Jul 28, 2015 at 6:06:01 AM

Latest Report: Jul 28, 2015 at 5:20 AM


Visibility: 6 mi

Pressure: 29.50 "Hg

Humidity: 100%

Dew point: 55 °F

Location of SandefjordLocation

Historic Weather in Sandefjord — Graph

°F

Sandefjord temperature yesterday

Maximum temperature yesterday: 63 °F (at 10:50 AM)
Minimum temperature yesterday: 48 °F (at 5:50 AM)
Average temperature yesterday: 57 °F

Past Weeks' High & Low Weather Summary

 TemperatureHumidityPressure
High70 °F (Jul 22, 2:20 PM)100% (Jul 13, 4:20 AM)30.07 "Hg (Jul 13, 4:20 AM)
Low48 °F (Jul 17, 1:50 AM)35% (Jul 23, 3:50 PM)29.39 "Hg (Jul 26, 11:20 AM)
Average58 °F76%29.72 "Hg
* Reported Jul 13 4:20 AM — Jul 28 4:20 AM, Sandefjord, Weather by CustomWeather, © 2015

Note: Actual official high and low records may vary slightly from our data, if they occured in-between our weather recording intervals... More about our weather records

Advertising

Sandefjord weather history for previous 24 hours

 ConditionsComfort  
Time TempWeatherWind HumidityBarometerVisibility
4:20 AM
Tue, Jul 28
55 °FFog.5 mph100%29.50 "Hg2 mi
3:50 AM55 °FPartly cloudy.5 mph94%29.53 "Hg3 mi
3:20 AM55 °FPartly cloudy.2 mph100%29.53 "Hg5 mi
2:50 AM55 °FPassing clouds.2 mph100%29.53 "HgN/A
2:20 AM55 °FPassing clouds.1 mph94%29.53 "HgN/A
1:50 AM55 °FRain. Overcast.2 mph94%29.53 "HgN/A
1:20 AM57 °FOvercast.No wind88%29.53 "HgN/A
12:50 AM57 °FOvercast.No wind88%29.53 "HgN/A
11:50 PM
Mon, Jul 27
57 °FPartly cloudy.5 mph88%29.53 "HgN/A
11:20 PM57 °FMostly cloudy.6 mph88%29.53 "HgN/A
10:50 PM57 °FPartly sunny.5 mph94%29.53 "HgN/A
10:20 PM57 °FPartly sunny.6 mph94%29.53 "HgN/A
9:50 PM59 °FPartly sunny.9 mph88%29.53 "HgN/A
9:20 PM59 °FPartly sunny.9 mph88%29.53 "HgN/A
8:50 PM59 °FPartly sunny.9 mph88%29.53 "HgN/A
8:20 PM59 °FPartly sunny.10 mph88%29.53 "HgN/A
7:50 PM59 °FPartly sunny.12 mph88%29.53 "HgN/A
7:20 PM59 °FBroken clouds.14 mph82%29.53 "HgN/A
6:50 PM59 °FScattered clouds.14 mph82%29.53 "HgN/A
6:20 PM59 °FScattered clouds.15 mph77%29.53 "HgN/A
5:50 PM59 °FMore clouds than sun.13 mph77%29.53 "HgN/A
5:20 PM59 °FScattered clouds.16 mph77%29.53 "HgN/A
4:50 PM59 °FBroken clouds.16 mph77%29.53 "HgN/A
4:20 PM59 °FScattered clouds.17 mph77%29.53 "HgN/A
3:50 PM59 °FPassing clouds.17 mph63%29.53 "HgN/A
3:20 PM61 °FPassing clouds.16 mph63%29.53 "HgN/A
2:50 PM61 °FScattered clouds.15 mph68%29.53 "HgN/A
2:20 PM63 °FScattered clouds.16 mph64%29.50 "HgN/A
1:50 PM59 °FScattered clouds.16 mph68%29.50 "HgN/A
1:20 PM61 °FScattered clouds.16 mph63%29.50 "HgN/A
12:50 PM63 °FScattered clouds.15 mph64%29.50 "HgN/A
12:20 PM61 °FPassing clouds.14 mph77%29.50 "HgN/A
11:50 AM61 °FSunny.16 mph72%29.50 "Hg10 mi
11:20 AM59 °FSunny.15 mph72%29.50 "Hg10 mi
10:50 AM63 °FPassing clouds.12 mph68%29.50 "HgN/A
10:20 AM61 °FSunny.10 mph68%29.47 "Hg10 mi
9:50 AM61 °FSunny.7 mph72%29.47 "Hg10 mi
9:20 AM59 °FPassing clouds.6 mph72%29.47 "HgN/A
8:50 AM57 °FSunny.7 mph77%29.47 "Hg10 mi
8:20 AM57 °FSunny.6 mph77%29.47 "Hg10 mi
7:50 AM55 °FPassing clouds.5 mph82%29.45 "HgN/A
7:20 AM55 °FSunny.2 mph82%29.47 "Hg10 mi
6:50 AM54 °FSunny.5 mph88%29.45 "Hg10 mi
6:20 AM52 °FSunny.7 mph94%29.45 "Hg10 mi
Weather by CustomWeather, © 2015

See weather overviewHow to use our weather pages